Weather History for Guatemala Aeropuertola Aurora, Guatemala

Change the Weather History Date:

Friday, January 31, 2014

  Actual Average Record
Temperature  
Mean Temperature 64 °F -  
Max Temperature 75 °F 74 °F - ()
Min Temperature 53 °F 55 °F - ()
Degree Days  
Heating Degree Days 1    
Growing Degree Days 14 (Base 50)    
Moisture  
Dew Point 53 °F    
Average Humidity 71    
Maximum Humidity 94    
Minimum Humidity 36    
Precipitation  
Precipitation 0.00 in - - ()
Sea Level Pressure  
Sea Level Pressure 30.20 in    
Wind  
Wind Speed 11 mph ()    
Max Wind Speed 16 mph    
Max Gust Speed -    
Visibility 5.6 miles    
Events      
T = Trace of Precipitation, MM = Missing Value Source: Averaged Metar Reports

Daily Weather History Graph

Daily Weather History Graph

Search for Another Location

Airport:

Trip Planner

Search our weather history database for the weather conditions in past years. The results will help you decide how hot, cold, wet, or windy it might be!

Date:

Astronomy

Jan. 31, 2014 Rise Set
Actual Time 6:30 AM CST 6:00 PM CST
Civil Twilight 6:08 AM CST 6:23 PM CST
Nautical Twilight 5:42 AM CST 6:48 PM CST
Astronomical Twilight 5:16 AM CST 7:14 PM CST
Moon 6:56 AM CST (1/31) 7:03 PM CST (1/31)
Length of Visible Light 12h 14m
Length of Day
11h 30m
New Moon, 1% of the Moon is Illuminated
Jan 31
New Moon
Feb 6
First Quarter
Feb 14
Full
Feb 22
Last Quarter
Mar 1
New

Hourly Weather History & Observations

Time (CST) Temp. Dew Point Humidity Pressure Visibility Wind Dir Wind Speed Gust Speed Precip Events Conditions
12:00 AM 57.2 °F 55.4 °F 94% 30.27 in 6.2 mi North 11.5 mph - N/A   Mostly Cloudy
1:00 AM 59.0 °F 53.6 °F 82% 30.27 in 6.2 mi North 9.2 mph - N/A   Mostly Cloudy
2:00 AM 57.2 °F 53.6 °F 88% 30.24 in 6.2 mi North 11.5 mph - N/A   Scattered Clouds
3:00 AM 57.2 °F 53.6 °F 88% 30.21 in 6.2 mi North 11.5 mph - N/A   Partly Cloudy
4:00 AM 55.4 °F 53.6 °F 94% 30.21 in - North 9.2 mph - N/A   Clear
5:00 AM 55.4 °F 51.8 °F 88% 30.24 in 6.2 mi North 9.2 mph - N/A   Mostly Cloudy
6:00 AM 55 °F 53 °F 88% 29.97 in 25 mi North 11.5 mph - -   Partly Cloudy
6:00 AM 55.4 °F 51.8 °F 88% 30.24 in 6.2 mi North 11.5 mph - N/A   Scattered Clouds
6:30 AM - - N/A% - 0.6 mi North 9.2 mph - N/A   Mostly Cloudy
7:00 AM 53.6 °F 51.8 °F 94% 30.24 in 0.9 mi North 11.5 mph - N/A   Scattered Clouds
7:05 AM - - N/A% - 3.1 mi North 9.2 mph - N/A   Scattered Clouds
8:00 AM 57.2 °F 53.6 °F 88% 30.27 in 6.2 mi NNE 11.5 mph - N/A   Partly Cloudy
9:00 AM 60.8 °F 53.6 °F 77% 30.27 in 6.2 mi NNE 11.5 mph - N/A   Partly Cloudy
10:00 AM 66.2 °F 51.8 °F 60% 30.27 in 6.2 mi North 16.1 mph - N/A   Partly Cloudy
11:00 AM 68.0 °F 51.8 °F 56% 30.27 in 6.2 mi North 16.1 mph - N/A   Partly Cloudy
12:00 PM 72 °F 51 °F 36% 29.95 in 25 mi North 16.1 mph - -   Partly Cloudy
12:00 PM 71.6 °F 51.8 °F 50% 30.24 in 6.2 mi North 16.1 mph - N/A   Partly Cloudy
1:00 PM 71.6 °F 51.8 °F 50% 30.21 in 6.2 mi NNE 11.5 mph - N/A   Scattered Clouds
2:00 PM 73.4 °F 53.6 °F 50% 30.18 in 6.2 mi NNE 11.5 mph - N/A   Partly Cloudy
3:00 PM 75.2 °F 55.4 °F 50% 30.15 in 6.2 mi NE 9.2 mph - N/A   Partly Cloudy
4:00 PM 73.4 °F 53.6 °F 50% 30.15 in 6.2 mi NNE 11.5 mph - N/A   Partly Cloudy
5:00 PM 71.6 °F 55.4 °F 57% 30.18 in 6.2 mi NNE 11.5 mph - N/A   Partly Cloudy
6:00 PM 67 °F 53 °F 51% 29.93 in 25 mi NNE 16.1 mph - -   Mostly Cloudy
6:00 PM 66.2 °F 53.6 °F 64% 30.18 in - NNE 16.1 mph - N/A   Clear
7:00 PM 64.4 °F 53.6 °F 68% 30.21 in - NNE 16.1 mph - N/A   Clear
8:00 PM 64.4 °F 53.6 °F 68% 30.21 in 6.2 mi NNE 16.1 mph - N/A   Partly Cloudy
9:00 PM 62.6 °F 55.4 °F 77% 30.24 in 6.2 mi NNE 13.8 mph - N/A   Partly Cloudy
10:00 PM 60.8 °F 57.2 °F 88% 30.27 in 6.2 mi North 16.1 mph - N/A   Scattered Clouds
11:00 PM 60.8 °F 55.4 °F 82% 30.27 in 6.2 mi North 13.8 mph - N/A   Mostly Cloudy